Location: Jaite
(41.2884°N, 81.5737°W)
Time: 06:43:22
(UTC+00:00)

Cosmos 968 Rocket - Pass Details

Date: 15 November 2025
Orbit: 735 x 766 km, 74.0° (Epoch: 13 December)

Event Time Altitude Azimuth Distance (km) Brightness Sun altitude
Exits shadow 10:44:52 - 344° (NNW) 3,110 6.4 -16.9°
Reaches altitude 10° 10:46:57 10° 347° (NNW) 2,310 5.8 -16.6°
Maximum altitude 10:52:09 62° 68° (ENE) 865 4.0 -15.6°
Drops below altitude 10° 10:57:19 10° 149° (SSE) 2,296 6.6 -14.6°
Sets 10:59:42 0° 153° (SSE) 3,217 7.3 -14.2°
